Location: The Rolnick Observatory
(41.1711°N, 73.3275°W)
Time: 18:15:20
(UTC-04:00)

N. Korean satellite - Pass Details

Date: 21 February 2019
Orbit: 455 x 511 km, 97.2° (Epoch: 18 March)

Event Time Altitude Azimuth Distance (km) Brightness Sun altitude
Rises 05:27:39 0° 24° (NNE) 2,498 10.5 -14.3°
Reaches altitude 10° 05:29:58 10° 38° (NE) 1,611 9.7 -13.9°
Maximum altitude 05:32:52 25° 96° (E) 963 9.0 -13.3°
Drops below altitude 10° 05:35:44 10° 153° (SSE) 1,590 9.6 -12.8°
Sets 05:38:00 0° 167° (SSE) 2,457 10.4 -12.4°
